SCP
0 0 0 0 0 0 0 0 0 0 0 0 0 0 0 0 0 0 0 0 0 0 0 0 0 0 0 0 0 0 0 0 0 0 0 0 0 0 0 0 0 0 0 0 0 0 0 0 0 0 0 0 0 0
0 0 0 0 0 0 0 0 0 0 0 0 0 0 0 0 0 0 0 0 0 0 -0 0 0 0 0 0 0 0 0 0 0 0 0 0 0 0 0 0 0 0 0 0 0 0 0 0 0 0 0 0 0 0
0 0 0 0 0 0 0 0 0 0 0 0 0 0 0 0 0 0 0 0 0 -0 -0 0 0 0 0 0 0 0 0 0 0 0 0 0 0 0 0 0 0 0 0 2 1 2 0 0 0 0 0 0 0 0
0 0 0 0 0 0 0 0 0 0 -0 0 0 -0 0 0 0 0 0 0 0 -0 0 0 0 0 0 0 0 0 0 0 0 0 0 0 0 0 0 0 0 0 0 1 0 0 0 0 0 0 0 0 0 0
0 0 0 0 0 -0 -0 0 0 0 0 -0 0 -0 -0 0 0 0 -0 -0 -0 0 0 0 0 0 0 0 -0 -0 0 -0 0 0 0 0 0 0 0 0 0 0 0 1 1 0 0 0 0 0 0 0 0 0
0 0 0 0 0 0 0 0 -0 -0 -0 -0 -0 0 0 0 0 0 0 0 0 0 0 0 0 0 0 0 -0 -0 -0 -0 -0 0 0 0 0 0 0 0 0 0 0 0 0 0 0 0 0 0 0 0 0 0
0 0 0 0 0 0 -0 0 0 0 0 0 0 0 0 -0 -0 0 0 0 0 0 0 0 0 0 0 0 0 0 -0 -0 -0 0 0 0 0 0 0 0 0 0 0 0 0 0 0 0 0 0 0 0 0 0
0 0 0 0 0 0 0 0 0 0 0 0 0 0 0 0 0 0 0 0 0 0 0 0 0 0 0 0 0 0 -0 -0 -0 0 0 0 0 0 0 0 0 0 0 0 0 0 0 0 0 0 0 0 0 0
0 0 0 0 0 0 0 0 -0 0 0 0 0 0 0 0 0 0 0 -0 0 0 0 0 0 0 0 0 0 0 0 -0 -0 0 0 0 0 0 0 0 0 0 0 0 0 0 0 0 0 0 0 0 0 0
0 0 0 0 0 0 0 0 0 0 0 0 -0 0 0 0 0 0 0 0 0 0 0 0 0 0 0 0 0 0 0 -0 -0 -0 0 0 0 0 0 0 0 0 0 0 0 0 0 0 0 0 0 0 0 0
0 0 0 0 0 0 0 0 0 0 0 0 0 0 0 0 0 0 0 0 -0 0 0 0 0 0 0 0 -0 0 -0 -0 -0 -0 0 0 0 0 0 0 0 0 0 0 0 0 0 0 0 0 0 0 0 0
0 0 0 0 0 0 0 0 0 0 0 0 0 0 0 0 0 0 0 -0 0 0 0 0 0 0 0 0 0 0 0 0 -0 -0 0 0 0 0 0 0 0 0 0 0 0 0 0 0 0 0 0 0 0 0
0 0 0 0 0 0 0 0 0 0 0 0 0 0 0 0 0 0 0 0 0 0 0 0 0 0 0 0 0 0 0 0 0 0 0 0 0 0 0 0 0 0 0 0 0 0 0 0 0 0 0 0 0 0
0 0 0 0 0 0 0 0 0 0 0 0 0 0 0 0 0 0 0 0 0 0 0 0 0 0 0 0 0 0 0 0 0 0 0 0 0 0 0 0 0 0 0 0 0 0 0 0 0 0 0 0 0 0
0 0 0 0 0 0 0 0 0 0 0 0 0 0 0 0 0 0 0 0 0 0 0 0 0 0 0 0 0 0 0 0 0 0 0 0 0 0 0 0 0 0 0 0 0 0 0 0 0 0 0 0 0 0
-0 0 0 -0 -0 -0 0 0 0 0 0 0 0 0 0 0 0 0 0 0 0 0 0 0 0 0 0 0 0 0 0 0 0 0 0 0 0 0 0 0 0 0 0 0 0 0 0 0 0 0 0 0 0 0
-0 0 0 -0 -0 -0 0 0 0 0 0 0 0 0 0 0 0 0 0 0 0 0 0 0 0 0 0 0 0 0 0 0 0 0 0 0 0 0 0 0 0 0 0 0 0 0 0 0 0 0 0 0 0 0
0 0 -0 -0 -0 0 0 0 0 0 0 0 0 0 0 0 0 0 0 0 0 0 0 0 0 0 0 0 0 0 0 0 0 0 0 0 0 0 0 0 0 0 0 0 0 0 0 0 0 0 0 0 -0 -0
0 0 0 0 0 0 0 0 0 0 0 0 0 0 0 0 0 0 0 0 0 0 0 0 0 0 0 0 0 0 0 0 0 0 0 0 0 0 0 0 0 0 0 0 0 -0 -0 -0 0 -0 0 0 0 -0
0 0 0 0 0 0 0 0 0 0 0 0 0 0 0 0 0 0 0 0 0 0 0 0 0 0 0 0 0 0 0 0 0 0 0 0 0 0 0 0 0 0 0 0 0 -0 -0 -0 -0 0 0 0 0 0
0 0 0 0 0 0 0 0 0 0 0 0 0 0 0 0 0 0 0 0 0 0 0 0 0 0 0 0 0 0 0 0 -0 0 0 0 0 0 0 0 0 0 0 0 -0 0 0 -0 0 0 0 0 0 0
0 0 0 0 0 0 0 0 0 0 0 0 0 0 0 0 0 0 0 0 0 0 0 0 0 0 0 0 0 0 0 0 0 0 -0 0 0 0 0 0 0 0 0 -0 0 0 0 0 -0 -0 0 -0 -0 0
0 0 0 0 0 0 0 0 0 0 0 0 0 0 0 0 0 0 0 0 0 0 0 0 0 0 0 0 0 0 0 0 0 0 0 -0 -0 -0 0 0 0 0 0 0 -0 -0 -0 -0 -0 -0 0 0 0 0
0 0 0 0 0 0 0 0 0 0 0 0 0 0 0 0 0 0 0 0 0 0 0 0 0 0 0 0 0 0 0 0 -0 0 -0 0 -0 -0 0 0 -0 -0 -0 -0 -0 -0 -0 -0 -0 0 0 0 0 0
0 0 0 0 0 0 0 0 0 0 0 0 0 0 0 0 0 0 0 0 0 0 0 -0 -0 0 0 0 -0 -0 -0 -0 -0 -0 0 -0 0 0 0 0 0 0 0 0 0 0 0 0 0 0 0 0 0 0
0 0 0 0 0 0 0 0 0 0 0 0 0 0 0 0 0 0 0 0 0 0 0 0 0 0 0 0 0 0 -0 -0 0 0 0 0 -0 -0 0 0 0 0 0 0 0 0 0 0 0 0 0 0 0 0
0 0 0 0 0 0 0 0 0 0 0 0 0 0 0 0 -0 0 0 0 0 0 0 0 0 0 0 0 0 0 0 0 0 0 0 0 0 0 0 0 0 0 0 0 0 0 0 0 0 0 0 0 0 0
0 0 0 0 0 0 0 0 -0 -0 0 -0 -0 0 0 -0 -0 0 0 -0 0 0 0 0 0 0 0 0 0 0 0 0 0 0 0 0 0 0 0 0 0 0 0 0 0 0 0 0 0 0 0 0 0 0
0 0 0 0 0 0 0 0 0 0 0 0 0 0 0 0 -0 0 0 -0 0 0 0 0 0 0 0 0 0 0 0 0 0 0 0 0 0 0 0 0 0 0 0 0 0 0 0 0 0 0 0 0 0 0
0 0 0 0 0 -0 0 0 0 0 0 0 0 0 0 0 0 0 0 0 0 0 0 0 0 0 0 0 0 0 0 0 0 0 0 0 0 0 0 0 0 0 0 0 0 0 0 0 0 0 0 0 0 0
0 0 0 0 0 0 0 0 0 0 0 0 0 0 0 0 0 -0 0 -0 -0 0 0 0 0 0 -0 0 0 0 0 0 0 0 0 0 0 0 0 0 0 0 0 0 0 0 0 0 0 0 0 0 0 0
0 0 0 0 0 0 0 0 0 0 0 0 0 -0 -0 0 0 0 0 -0 -0 -0 -0 0 0 -0 0 0 0 0 0 0 0 0 0 0 0 0 0 0 0 0 0 0 0 0 0 0 0 0 0 0 0 0
0 0 0 0 0 0 0 0 0 0 0 -0 0 0 0 0 0 -0 0 0 0 -0 0 0 0 0 0 0 0 0 0 0 0 0 0 0 0 0 0 0 0 0 0 0 0 0 0 0 0 0 0 0 0 0
Wind_Speed_500mb
41 41 42 37 36 37 35 34 33 32 33 35 36 33 32 31 28 25 33 26 36 21 41 58 59 42 32 25 10 21 22 8 8 10 5 4 8 14 10 12 17 14 13 9 6 3 8 13 8 21 16 5 47 44
43 40 41 40 42 43 43 44 43 42 43 42 35 38 34 31 28 27 40 26 21 33 40 56 53 52 54 48 35 12 8 4 10 7 8 8 7 5 13 8 4 5 13 12 13 8 10 30 8 1 25 35 39 51
43 44 45 48 50 50 48 47 45 46 54 50 42 32 31 30 27 29 35 28 27 34 55 56 61 61 65 77 72 25 14 8 7 35 8 7 12 2 4 6 10 11 10 10 11 8 11 36 34 50 52 63 67 74
45 48 48 49 49 49 44 42 36 42 40 26 30 28 26 25 25 27 36 29 24 20 13 21 27 53 35 34 51 80 71 25 40 41 14 7 7 4 4 9 7 4 5 12 8 9 20 35 40 80 89 95 95 88
43 47 50 48 47 44 39 33 34 30 23 17 11 17 21 19 20 25 33 37 30 25 12 37 80 23 16 48 42 46 54 50 25 12 5 8 10 7 5 3 6 3 9 9 10 26 36 23 63 71 88 81 76 66
43 47 47 49 50 43 43 29 23 24 17 14 10 10 12 14 16 17 11 9 21 23 13 9 23 19 4 28 49 51 48 33 13 12 22 19 12 1 2 5 8 12 13 23 12 22 57 56 77 77 74 60 53 54
44 45 48 53 56 47 39 31 23 20 17 15 13 12 12 15 19 15 9 6 21 14 9 8 10 16 14 38 42 48 26 12 7 12 14 14 12 2 2 6 3 29 55 69 71 91 59 59 58 65 70 61 33 38
42 45 46 45 47 50 42 33 30 16 13 11 11 10 11 15 23 26 14 15 11 15 13 6 8 14 5 16 18 31 20 9 8 5 21 9 16 3 6 6 15 62 70 77 76 76 71 58 52 44 43 46 38 30
42 43 43 42 40 36 39 41 38 28 22 17 13 9 11 10 7 8 10 9 14 13 10 6 5 6 17 6 15 23 15 5 6 5 8 19 6 2 11 19 38 52 51 64 59 57 52 45 37 32 29 28 29 30
41 41 40 39 37 36 34 33 31 42 17 18 10 3 6 4 13 7 5 5 9 10 9 6 10 6 6 2 9 10 12 7 4 4 25 4 4 22 13 30 37 52 57 57 60 50 51 48 46 42 37 31 24 21
39 38 35 35 35 32 31 35 42 45 27 18 11 6 12 5 2 6 8 10 9 6 11 14 18 7 8 6 8 18 7 7 6 8 4 7 7 11 24 45 47 48 46 44 44 41 34 30 28 27 25 21 17 11
39 36 34 33 33 32 34 37 41 43 37 23 14 16 10 5 6 7 4 5 5 6 9 8 12 17 13 10 3 6 5 4 9 22 5 5 8 15 20 33 38 44 41 38 32 34 32 27 19 15 12 4 3 8
39 36 36 36 36 37 40 40 39 40 31 6 4 4 7 4 4 6 4 1 3 7 9 12 6 8 9 13 4 4 7 5 13 6 6 1 12 22 39 45 43 37 29 26 27 25 23 21 15 6 2 3 8 11
39 38 34 40 39 40 37 38 35 31 11 8 10 11 10 8 10 6 10 6 10 16 41 30 12 7 11 7 2 8 4 7 6 7 5 1 15 35 38 36 31 28 22 21 20 18 15 11 5 2 7 14 18 20
42 35 34 41 42 37 33 29 25 19 11 12 8 7 6 7 17 32 29 25 35 34 24 8 8 8 5 6 8 10 9 10 8 5 4 16 25 30 32 29 21 17 16 18 19 13 8 3 3 9 14 16 16 15
45 37 40 43 41 29 28 19 20 19 7 9 15 10 30 10 25 33 31 27 52 42 8 10 6 6 8 5 10 9 7 8 4 3 10 16 17 18 22 20 19 17 12 16 12 6 5 6 5 2 3 1 4 4
39 39 43 44 38 20 24 17 15 12 10 10 10 34 35 8 18 36 38 50 51 20 8 8 12 9 8 8 9 7 5 2 15 20 21 20 20 16 7 7 12 15 13 12 9 7 10 24 23 20 14 13 10 8
34 29 32 37 38 20 18 20 10 12 13 18 12 44 43 24 41 42 37 43 32 19 11 6 4 13 8 7 6 7 11 26 21 21 20 19 22 25 20 7 8 12 12 8 8 21 29 20 22 27 29 24 16 12
34 30 30 29 33 16 13 13 12 8 11 15 29 40 27 35 36 28 32 29 20 25 10 11 9 7 5 8 6 19 22 21 23 21 26 17 10 4 8 15 23 18 16 22 25 24 17 13 10 10 11 15 20 22
22 20 23 20 22 7 8 11 12 9 12 18 25 35 22 24 39 46 43 33 31 14 17 9 6 15 11 14 21 23 23 32 33 39 38 35 29 20 15 21 23 25 21 19 15 12 9 8 6 2 3 5 4 9
20 17 16 15 11 16 9 9 9 8 11 11 26 25 18 31 34 44 43 36 21 11 7 7 7 11 17 32 36 30 34 34 39 32 35 33 30 32 28 29 25 21 17 16 13 8 5 3 2 4 6 6 4 6
17 19 16 15 13 7 8 15 6 11 8 13 18 21 13 16 24 35 30 25 14 13 8 5 6 4 8 19 17 16 12 23 23 24 22 22 35 39 36 28 21 15 5 2 8 7 3 6 4 10 12 7 5 2
17 14 10 15 8 10 5 16 7 10 6 18 9 7 8 11 16 20 18 16 11 20 29 30 28 28 28 21 6 5 14 15 18 18 13 13 11 2 10 11 13 15 9 4 9 9 10 8 7 6 15 10 11 14
13 10 9 8 11 6 11 10 10 9 12 10 6 5 8 13 17 5 2 10 29 43 29 25 31 32 30 31 31 16 11 30 35 30 25 18 18 5 10 15 14 3 8 9 11 7 8 11 11 8 6 7 13 18
9 8 8 8 5 5 6 5 5 5 2 3 3 5 7 13 10 10 8 28 42 49 49 63 67 57 52 42 35 29 22 22 22 31 26 24 15 13 4 17 10 21 18 13 11 10 13 24 21 16 18 17 16 14
4 4 2 5 4 3 4 3 6 7 5 6 5 8 5 7 6 6 12 28 26 29 41 35 42 40 47 45 47 37 21 16 9 18 26 20 15 15 10 12 18 23 21 18 15 13 13 15 11 8 6 14 17 20
12 7 14 17 9 9 9 8 3 0 4 4 2 4 4 8 10 10 11 34 28 31 33 25 31 28 31 26 26 31 34 30 29 30 26 23 18 21 22 19 18 17 15 18 22 22 22 24 17 15 17 21 23 18
10 12 11 28 21 20 6 8 8 10 8 16 4 7 5 6 5 8 23 16 23 28 40 44 38 35 32 29 25 22 21 21 19 13 7 10 10 12 15 14 12 11 13 17 18 17 17 21 32 36 41 43 40 30
11 16 16 15 14 13 11 9 13 18 32 8 3 3 7 16 6 26 31 27 29 26 29 28 29 25 25 25 28 26 24 25 28 24 21 21 26 28 30 31 33 34 35 38 39 40 41 40 41 40 36 32 29 25
7 18 5 9 8 5 6 10 15 35 37 30 21 44 48 36 37 38 35 29 30 33 28 26 26 30 34 37 35 29 24 23 21 17 18 21 24 28 33 38 41 42 43 44 43 40 35 30 22 21 18 18 17 16
15 10 4 4 5 7 13 10 11 10 17 21 17 30 31 27 47 39 31 29 28 27 28 33 38 44 44 35 24 17 19 16 17 18 19 27 34 39 43 44 44 41 37 34 31 27 24 23 22 24 25 24 24 25
11 6 2 1 2 0 1 5 10 14 16 11 10 15 6 1 12 24 38 35 41 44 36 38 43 36 25 19 17 18 13 12 23 31 37 38 32 29 27 28 29 30 26 21 19 19 20 20 19 18 19 23 25 26
11 12 5 3 2 5 7 8 6 7 10 9 10 18 30 16 8 6 6 22 29 33 36 41 43 36 27 19 18 20 20 26 34 40 37 33 31 29 32 32 30 30 32 34 33 30 27 25 23 23 23 21 19 19
Wind_Direction_500mb
331 329 331 320 321 323 321 317 311 303 300 290 276 272 269 269 269 269 268 255 244 253 269 272 265 265 268 261 265 315 331 1 319 349 331 237 222 219 121 167 171 151 146 157 153 88 276 17 302 152 203 129 165 174
334 332 331 326 320 317 313 310 306 299 296 284 284 267 263 266 265 266 268 273 268 263 265 272 268 260 250 257 251 258 274 325 268 3 4 323 294 293 152 173 344 134 177 149 154 214 325 334 291 316 165 142 137 139
332 333 330 325 320 316 311 307 304 298 295 284 267 262 258 262 263 255 269 272 283 281 288 269 262 280 264 254 237 230 232 187 274 337 278 262 265 134 149 163 125 10 28 105 114 7 32 3 74 96 113 101 125 132
332 331 330 328 329 323 316 325 319 317 311 284 259 248 255 268 260 255 256 264 269 276 276 288 290 295 257 258 231 230 235 224 303 305 221 253 250 349 284 140 106 209 11 112 66 125 87 75 80 102 104 111 110 111
336 336 335 334 332 323 321 317 320 328 335 336 229 247 267 256 256 257 260 260 259 247 305 297 304 281 249 219 211 211 227 256 295 314 292 254 264 305 330 70 45 3 151 140 202 188 129 139 112 112 113 112 112 108
341 343 345 343 344 342 344 319 322 332 332 321 295 257 253 245 253 283 295 267 206 231 271 292 297 299 333 192 188 187 203 225 248 310 291 264 282 198 94 72 330 8 189 143 136 131 125 129 121 118 111 104 105 109
344 346 347 346 354 359 2 358 326 318 330 325 310 295 278 249 259 252 259 305 158 312 273 269 282 299 11 124 141 154 172 222 167 287 244 274 281 45 98 92 221 95 110 114 113 123 99 111 106 116 117 108 100 98
345 346 349 351 350 357 6 8 4 346 322 326 320 286 265 263 276 280 281 215 230 278 255 274 271 309 73 143 124 153 162 160 104 260 287 256 310 55 65 300 104 109 108 107 107 107 110 115 114 109 107 112 120 121
343 345 349 353 358 1 1 8 13 11 355 330 319 300 281 258 261 249 163 231 257 240 295 290 301 288 348 139 121 154 146 152 80 6 266 318 320 37 174 156 129 120 117 118 115 115 121 121 122 131 133 149 145 156
347 350 354 358 360 358 355 358 3 23 10 360 297 286 279 231 290 291 179 216 214 219 238 253 255 257 294 308 154 143 165 149 108 254 289 224 4 56 72 138 123 127 134 137 131 131 134 127 128 122 121 124 122 107
353 354 356 356 355 355 349 345 349 354 6 6 349 280 325 323 236 235 226 196 180 224 224 243 236 245 260 186 196 206 171 158 99 219 139 17 9 334 98 106 117 121 125 122 117 115 123 126 120 115 104 98 102 113
353 357 357 359 357 350 345 344 340 344 343 318 280 286 293 265 249 265 245 160 188 257 231 220 249 227 276 241 231 222 116 106 168 151 116 45 316 27 117 115 117 115 116 119 125 127 125 122 119 115 111 106 311 289
352 350 355 355 350 341 338 339 338 338 340 341 298 268 275 269 291 272 284 96 311 260 295 309 314 261 247 230 238 79 136 75 111 65 75 38 312 87 96 100 100 104 114 120 124 127 124 118 114 87 35 295 297 286
349 344 345 350 344 343 338 340 343 354 11 16 350 356 8 6 11 313 304 264 224 264 289 296 263 310 316 343 284 64 10 103 79 76 87 241 21 84 84 85 94 101 115 130 134 134 136 136 117 343 292 287 287 289
345 342 341 349 349 345 347 352 352 6 10 27 44 5 310 283 267 312 343 322 326 318 301 206 227 270 298 336 35 44 31 56 39 80 80 36 45 73 88 88 95 125 149 156 153 159 153 119 355 314 295 281 268 261
342 343 350 348 349 350 350 350 7 23 36 26 28 342 338 340 351 352 347 342 354 353 357 22 22 42 63 61 45 19 53 44 42 37 32 25 28 39 58 76 84 90 119 155 161 156 105 47 45 37 318 237 180 198
343 344 340 345 347 346 349 4 9 8 25 20 10 1 353 325 341 340 342 346 358 12 16 15 35 355 316 37 33 31 51 331 341 332 327 318 309 303 315 67 104 106 128 156 165 140 114 108 82 73 73 67 80 113
343 347 348 354 357 358 10 21 21 20 22 13 358 347 345 339 346 357 356 4 8 12 17 54 33 34 32 36 30 335 333 327 328 330 335 318 292 277 266 242 145 142 146 162 170 145 142 124 97 74 66 70 79 95
338 342 350 355 0 9 14 27 26 45 17 0 344 352 352 354 5 3 2 12 36 41 47 36 42 29 23 30 343 349 346 340 338 31 43 22 325 282 207 186 175 161 144 134 134 139 134 128 111 90 79 69 70 70
332 333 340 357 13 44 37 24 15 18 18 338 338 348 343 353 12 29 31 32 51 51 44 40 24 26 50 22 4 16 36 66 66 59 47 50 63 77 110 144 153 147 150 157 153 146 123 92 80 62 359 349 360 46
27 23 24 22 39 61 57 19 30 17 332 335 351 350 337 358 5 10 13 37 60 48 78 108 130 38 359 23 40 55 66 25 28 38 40 53 74 87 97 111 124 135 149 155 160 165 209 231 281 257 292 335 321 225
12 21 13 18 37 66 57 24 7 344 339 330 345 356 352 355 348 4 16 41 40 37 51 45 33 358 349 48 64 59 13 39 39 62 57 75 72 88 87 89 104 99 85 253 274 254 263 307 293 236 225 246 243 255
355 1 15 13 22 34 10 356 26 12 15 346 8 20 0 5 23 23 10 355 350 1 350 348 346 337 333 336 342 322 328 356 45 49 51 43 38 62 217 241 266 279 282 258 272 274 264 229 273 263 226 219 264 268
10 2 2 20 26 1 339 355 18 14 349 9 20 27 350 338 345 62 106 327 20 26 15 17 17 28 35 41 39 58 89 84 67 52 37 67 14 33 73 60 44 327 269 257 241 255 286 290 276 254 248 257 285 286
356 14 9 344 1 357 345 337 350 359 318 230 4 340 343 14 16 27 356 355 35 37 72 74 64 65 64 57 62 74 87 71 75 47 61 53 35 42 56 50 82 32 36 41 20 334 307 318 272 287 269 272 301 283
40 343 261 303 295 203 248 245 217 228 206 203 237 128 132 95 48 342 316 2 19 30 70 61 70 71 56 58 61 59 64 62 69 88 66 59 37 25 19 20 35 40 31 19 10 14 351 354 5 352 308 281 304 300
358 344 350 317 280 305 294 298 202 358 3 37 116 112 81 60 31 338 19 25 31 74 70 71 74 79 78 85 70 53 51 65 78 76 72 69 73 67 68 65 42 27 351 336 328 330 332 341 335 322 317 312 302 286
312 311 7 358 345 354 8 26 29 12 337 349 32 52 89 91 190 348 75 64 74 85 75 69 59 59 56 50 42 32 27 23 18 13 42 64 42 27 29 25 359 334 327 334 334 330 321 283 281 290 289 290 291 291
257 300 332 350 41 47 41 38 12 356 344 325 85 78 82 99 101 113 113 103 92 79 64 51 43 34 37 26 20 18 16 14 9 358 352 348 339 345 351 342 333 327 322 316 314 314 314 312 304 300 293 288 285 286
337 346 18 28 27 4 6 32 20 17 40 51 73 84 73 78 98 98 96 84 69 66 61 50 36 25 19 11 5 358 2 4 1 2 3 359 353 342 335 330 327 325 324 324 321 318 317 315 304 285 273 279 289 302
335 351 50 134 218 293 340 319 326 22 113 104 78 74 76 71 83 68 62 49 44 40 29 23 14 9 4 6 14 4 4 5 357 349 343 335 332 330 332 334 334 330 323 313 305 302 306 308 306 306 310 312 312 312
327 344 283 254 299 304 79 62 61 71 103 103 94 186 166 120 61 44 34 17 15 16 16 9 8 13 2 343 333 347 4 329 337 341 345 345 343 339 337 334 334 332 329 329 329 329 330 330 329 325 318 315 315 313
288 298 270 218 205 229 200 173 131 95 57 57 65 50 17 25 41 56 327 3 13 13 10 5 1 355 343 338 342 346 346 340 335 333 333 334 337 336 330 329 333 335 337 337 340 343 347 347 342 334 329 326 321 312
Wind_Speed_850mb
41 41 42 37 36 37 35 34 33 32 33 35 36 33 32 31 28 25 33 26 36 21 41 58 59 42 32 25 10 21 22 8 8 10 5 4 8 14 10 12 17 14 13 9 6 3 8 13 8 21 16 5 47 44
43 40 41 40 42 43 43 44 43 42 43 42 35 38 34 31 28 27 40 26 21 33 40 56 53 52 54 48 35 12 8 4 10 7 8 8 7 5 13 8 4 5 13 12 13 8 10 30 8 1 25 35 39 51
43 44 45 48 50 50 48 47 45 46 54 50 42 32 31 30 27 29 35 28 27 34 55 56 61 61 65 77 72 25 14 8 7 35 8 7 12 2 4 6 10 11 10 10 11 8 11 36 34 50 52 63 67 74
45 48 48 49 49 49 44 42 36 42 40 26 30 28 26 25 25 27 36 29 24 20 13 21 27 53 35 34 51 80 71 25 40 41 14 7 7 4 4 9 7 4 5 12 8 9 20 35 40 80 89 95 95 88
43 47 50 48 47 44 39 33 34 30 23 17 11 17 21 19 20 25 33 37 30 25 12 37 80 23 16 48 42 46 54 50 25 12 5 8 10 7 5 3 6 3 9 9 10 26 36 23 63 71 88 81 76 66
43 47 47 49 50 43 43 29 23 24 17 14 10 10 12 14 16 17 11 9 21 23 13 9 23 19 4 28 49 51 48 33 13 12 22 19 12 1 2 5 8 12 13 23 12 22 57 56 77 77 74 60 53 54
44 45 48 53 56 47 39 31 23 20 17 15 13 12 12 15 19 15 9 6 21 14 9 8 10 16 14 38 42 48 26 12 7 12 14 14 12 2 2 6 3 29 55 69 71 91 59 59 58 65 70 61 33 38
42 45 46 45 47 50 42 33 30 16 13 11 11 10 11 15 23 26 14 15 11 15 13 6 8 14 5 16 18 31 20 9 8 5 21 9 16 3 6 6 15 62 70 77 76 76 71 58 52 44 43 46 38 30
42 43 43 42 40 36 39 41 38 28 22 17 13 9 11 10 7 8 10 9 14 13 10 6 5 6 17 6 15 23 15 5 6 5 8 19 6 2 11 19 38 52 51 64 59 57 52 45 37 32 29 28 29 30
41 41 40 39 37 36 34 33 31 42 17 18 10 3 6 4 13 7 5 5 9 10 9 6 10 6 6 2 9 10 12 7 4 4 25 4 4 22 13 30 37 52 57 57 60 50 51 48 46 42 37 31 24 21
39 38 35 35 35 32 31 35 42 45 27 18 11 6 12 5 2 6 8 10 9 6 11 14 18 7 8 6 8 18 7 7 6 8 4 7 7 11 24 45 47 48 46 44 44 41 34 30 28 27 25 21 17 11
39 36 34 33 33 32 34 37 41 43 37 23 14 16 10 5 6 7 4 5 5 6 9 8 12 17 13 10 3 6 5 4 9 22 5 5 8 15 20 33 38 44 41 38 32 34 32 27 19 15 12 4 3 8
39 36 36 36 36 37 40 40 39 40 31 6 4 4 7 4 4 6 4 1 3 7 9 12 6 8 9 13 4 4 7 5 13 6 6 1 12 22 39 45 43 37 29 26 27 25 23 21 15 6 2 3 8 11
39 38 34 40 39 40 37 38 35 31 11 8 10 11 10 8 10 6 10 6 10 16 41 30 12 7 11 7 2 8 4 7 6 7 5 1 15 35 38 36 31 28 22 21 20 18 15 11 5 2 7 14 18 20
42 35 34 41 42 37 33 29 25 19 11 12 8 7 6 7 17 32 29 25 35 34 24 8 8 8 5 6 8 10 9 10 8 5 4 16 25 30 32 29 21 17 16 18 19 13 8 3 3 9 14 16 16 15
45 37 40 43 41 29 28 19 20 19 7 9 15 10 30 10 25 33 31 27 52 42 8 10 6 6 8 5 10 9 7 8 4 3 10 16 17 18 22 20 19 17 12 16 12 6 5 6 5 2 3 1 4 4
39 39 43 44 38 20 24 17 15 12 10 10 10 34 35 8 18 36 38 50 51 20 8 8 12 9 8 8 9 7 5 2 15 20 21 20 20 16 7 7 12 15 13 12 9 7 10 24 23 20 14 13 10 8
34 29 32 37 38 20 18 20 10 12 13 18 12 44 43 24 41 42 37 43 32 19 11 6 4 13 8 7 6 7 11 26 21 21 20 19 22 25 20 7 8 12 12 8 8 21 29 20 22 27 29 24 16 12
34 30 30 29 33 16 13 13 12 8 11 15 29 40 27 35 36 28 32 29 20 25 10 11 9 7 5 8 6 19 22 21 23 21 26 17 10 4 8 15 23 18 16 22 25 24 17 13 10 10 11 15 20 22
22 20 23 20 22 7 8 11 12 9 12 18 25 35 22 24 39 46 43 33 31 14 17 9 6 15 11 14 21 23 23 32 33 39 38 35 29 20 15 21 23 25 21 19 15 12 9 8 6 2 3 5 4 9
20 17 16 15 11 16 9 9 9 8 11 11 26 25 18 31 34 44 43 36 21 11 7 7 7 11 17 32 36 30 34 34 39 32 35 33 30 32 28 29 25 21 17 16 13 8 5 3 2 4 6 6 4 6
17 19 16 15 13 7 8 15 6 11 8 13 18 21 13 16 24 35 30 25 14 13 8 5 6 4 8 19 17 16 12 23 23 24 22 22 35 39 36 28 21 15 5 2 8 7 3 6 4 10 12 7 5 2
17 14 10 15 8 10 5 16 7 10 6 18 9 7 8 11 16 20 18 16 11 20 29 30 28 28 28 21 6 5 14 15 18 18 13 13 11 2 10 11 13 15 9 4 9 9 10 8 7 6 15 10 11 14
13 10 9 8 11 6 11 10 10 9 12 10 6 5 8 13 17 5 2 10 29 43 29 25 31 32 30 31 31 16 11 30 35 30 25 18 18 5 10 15 14 3 8 9 11 7 8 11 11 8 6 7 13 18
9 8 8 8 5 5 6 5 5 5 2 3 3 5 7 13 10 10 8 28 42 49 49 63 67 57 52 42 35 29 22 22 22 31 26 24 15 13 4 17 10 21 18 13 11 10 13 24 21 16 18 17 16 14
4 4 2 5 4 3 4 3 6 7 5 6 5 8 5 7 6 6 12 28 26 29 41 35 42 40 47 45 47 37 21 16 9 18 26 20 15 15 10 12 18 23 21 18 15 13 13 15 11 8 6 14 17 20
12 7 14 17 9 9 9 8 3 0 4 4 2 4 4 8 10 10 11 34 28 31 33 25 31 28 31 26 26 31 34 30 29 30 26 23 18 21 22 19 18 17 15 18 22 22 22 24 17 15 17 21 23 18
10 12 11 28 21 20 6 8 8 10 8 16 4 7 5 6 5 8 23 16 23 28 40 44 38 35 32 29 25 22 21 21 19 13 7 10 10 12 15 14 12 11 13 17 18 17 17 21 32 36 41 43 40 30
11 16 16 15 14 13 11 9 13 18 32 8 3 3 7 16 6 26 31 27 29 26 29 28 29 25 25 25 28 26 24 25 28 24 21 21 26 28 30 31 33 34 35 38 39 40 41 40 41 40 36 32 29 25
7 18 5 9 8 5 6 10 15 35 37 30 21 44 48 36 37 38 35 29 30 33 28 26 26 30 34 37 35 29 24 23 21 17 18 21 24 28 33 38 41 42 43 44 43 40 35 30 22 21 18 18 17 16
15 10 4 4 5 7 13 10 11 10 17 21 17 30 31 27 47 39 31 29 28 27 28 33 38 44 44 35 24 17 19 16 17 18 19 27 34 39 43 44 44 41 37 34 31 27 24 23 22 24 25 24 24 25
11 6 2 1 2 0 1 5 10 14 16 11 10 15 6 1 12 24 38 35 41 44 36 38 43 36 25 19 17 18 13 12 23 31 37 38 32 29 27 28 29 30 26 21 19 19 20 20 19 18 19 23 25 26
11 12 5 3 2 5 7 8 6 7 10 9 10 18 30 16 8 6 6 22 29 33 36 41 43 36 27 19 18 20 20 26 34 40 37 33 31 29 32 32 30 30 32 34 33 30 27 25 23 23 23 21 19 19
Wind_Direction_850mb
331 329 331 320 321 323 321 317 311 303 300 290 276 272 269 269 269 269 268 255 244 253 269 272 265 265 268 261 265 315 331 1 319 349 331 237 222 219 121 167 171 151 146 157 153 88 276 17 302 152 203 129 165 174
334 332 331 326 320 317 313 310 306 299 296 284 284 267 263 266 265 266 268 273 268 263 265 272 268 260 250 257 251 258 274 325 268 3 4 323 294 293 152 173 344 134 177 149 154 214 325 334 291 316 165 142 137 139
332 333 330 325 320 316 311 307 304 298 295 284 267 262 258 262 263 255 269 272 283 281 288 269 262 280 264 254 237 230 232 187 274 337 278 262 265 134 149 163 125 10 28 105 114 7 32 3 74 96 113 101 125 132
332 331 330 328 329 323 316 325 319 317 311 284 259 248 255 268 260 255 256 264 269 276 276 288 290 295 257 258 231 230 235 224 303 305 221 253 250 349 284 140 106 209 11 112 66 125 87 75 80 102 104 111 110 111
336 336 335 334 332 323 321 317 320 328 335 336 229 247 267 256 256 257 260 260 259 247 305 297 304 281 249 219 211 211 227 256 295 314 292 254 264 305 330 70 45 3 151 140 202 188 129 139 112 112 113 112 112 108
341 343 345 343 344 342 344 319 322 332 332 321 295 257 253 245 253 283 295 267 206 231 271 292 297 299 333 192 188 187 203 225 248 310 291 264 282 198 94 72 330 8 189 143 136 131 125 129 121 118 111 104 105 109
344 346 347 346 354 359 2 358 326 318 330 325 310 295 278 249 259 252 259 305 158 312 273 269 282 299 11 124 141 154 172 222 167 287 244 274 281 45 98 92 221 95 110 114 113 123 99 111 106 116 117 108 100 98
345 346 349 351 350 357 6 8 4 346 322 326 320 286 265 263 276 280 281 215 230 278 255 274 271 309 73 143 124 153 162 160 104 260 287 256 310 55 65 300 104 109 108 107 107 107 110 115 114 109 107 112 120 121
343 345 349 353 358 1 1 8 13 11 355 330 319 300 281 258 261 249 163 231 257 240 295 290 301 288 348 139 121 154 146 152 80 6 266 318 320 37 174 156 129 120 117 118 115 115 121 121 122 131 133 149 145 156
347 350 354 358 360 358 355 358 3 23 10 360 297 286 279 231 290 291 179 216 214 219 238 253 255 257 294 308 154 143 165 149 108 254 289 224 4 56 72 138 123 127 134 137 131 131 134 127 128 122 121 124 122 107
353 354 356 356 355 355 349 345 349 354 6 6 349 280 325 323 236 235 226 196 180 224 224 243 236 245 260 186 196 206 171 158 99 219 139 17 9 334 98 106 117 121 125 122 117 115 123 126 120 115 104 98 102 113
353 357 357 359 357 350 345 344 340 344 343 318 280 286 293 265 249 265 245 160 188 257 231 220 249 227 276 241 231 222 116 106 168 151 116 45 316 27 117 115 117 115 116 119 125 127 125 122 119 115 111 106 311 289
352 350 355 355 350 341 338 339 338 338 340 341 298 268 275 269 291 272 284 96 311 260 295 309 314 261 247 230 238 79 136 75 111 65 75 38 312 87 96 100 100 104 114 120 124 127 124 118 114 87 35 295 297 286
349 344 345 350 344 343 338 340 343 354 11 16 350 356 8 6 11 313 304 264 224 264 289 296 263 310 316 343 284 64 10 103 79 76 87 241 21 84 84 85 94 101 115 130 134 134 136 136 117 343 292 287 287 289
345 342 341 349 349 345 347 352 352 6 10 27 44 5 310 283 267 312 343 322 326 318 301 206 227 270 298 336 35 44 31 56 39 80 80 36 45 73 88 88 95 125 149 156 153 159 153 119 355 314 295 281 268 261
342 343 350 348 349 350 350 350 7 23 36 26 28 342 338 340 351 352 347 342 354 353 357 22 22 42 63 61 45 19 53 44 42 37 32 25 28 39 58 76 84 90 119 155 161 156 105 47 45 37 318 237 180 198
343 344 340 345 347 346 349 4 9 8 25 20 10 1 353 325 341 340 342 346 358 12 16 15 35 355 316 37 33 31 51 331 341 332 327 318 309 303 315 67 104 106 128 156 165 140 114 108 82 73 73 67 80 113
343 347 348 354 357 358 10 21 21 20 22 13 358 347 345 339 346 357 356 4 8 12 17 54 33 34 32 36 30 335 333 327 328 330 335 318 292 277 266 242 145 142 146 162 170 145 142 124 97 74 66 70 79 95
338 342 350 355 0 9 14 27 26 45 17 0 344 352 352 354 5 3 2 12 36 41 47 36 42 29 23 30 343 349 346 340 338 31 43 22 325 282 207 186 175 161 144 134 134 139 134 128 111 90 79 69 70 70
332 333 340 357 13 44 37 24 15 18 18 338 338 348 343 353 12 29 31 32 51 51 44 40 24 26 50 22 4 16 36 66 66 59 47 50 63 77 110 144 153 147 150 157 153 146 123 92 80 62 359 349 360 46
27 23 24 22 39 61 57 19 30 17 332 335 351 350 337 358 5 10 13 37 60 48 78 108 130 38 359 23 40 55 66 25 28 38 40 53 74 87 97 111 124 135 149 155 160 165 209 231 281 257 292 335 321 225
12 21 13 18 37 66 57 24 7 344 339 330 345 356 352 355 348 4 16 41 40 37 51 45 33 358 349 48 64 59 13 39 39 62 57 75 72 88 87 89 104 99 85 253 274 254 263 307 293 236 225 246 243 255
355 1 15 13 22 34 10 356 26 12 15 346 8 20 0 5 23 23 10 355 350 1 350 348 346 337 333 336 342 322 328 356 45 49 51 43 38 62 217 241 266 279 282 258 272 274 264 229 273 263 226 219 264 268
10 2 2 20 26 1 339 355 18 14 349 9 20 27 350 338 345 62 106 327 20 26 15 17 17 28 35 41 39 58 89 84 67 52 37 67 14 33 73 60 44 327 269 257 241 255 286 290 276 254 248 257 285 286
356 14 9 344 1 357 345 337 350 359 318 230 4 340 343 14 16 27 356 355 35 37 72 74 64 65 64 57 62 74 87 71 75 47 61 53 35 42 56 50 82 32 36 41 20 334 307 318 272 287 269 272 301 283
40 343 261 303 295 203 248 245 217 228 206 203 237 128 132 95 48 342 316 2 19 30 70 61 70 71 56 58 61 59 64 62 69 88 66 59 37 25 19 20 35 40 31 19 10 14 351 354 5 352 308 281 304 300
358 344 350 317 280 305 294 298 202 358 3 37 116 112 81 60 31 338 19 25 31 74 70 71 74 79 78 85 70 53 51 65 78 76 72 69 73 67 68 65 42 27 351 336 328 330 332 341 335 322 317 312 302 286
312 311 7 358 345 354 8 26 29 12 337 349 32 52 89 91 190 348 75 64 74 85 75 69 59 59 56 50 42 32 27 23 18 13 42 64 42 27 29 25 359 334 327 334 334 330 321 283 281 290 289 290 291 291
257 300 332 350 41 47 41 38 12 356 344 325 85 78 82 99 101 113 113 103 92 79 64 51 43 34 37 26 20 18 16 14 9 358 352 348 339 345 351 342 333 327 322 316 314 314 314 312 304 300 293 288 285 286
337 346 18 28 27 4 6 32 20 17 40 51 73 84 73 78 98 98 96 84 69 66 61 50 36 25 19 11 5 358 2 4 1 2 3 359 353 342 335 330 327 325 324 324 321 318 317 315 304 285 273 279 289 302
335 351 50 134 218 293 340 319 326 22 113 104 78 74 76 71 83 68 62 49 44 40 29 23 14 9 4 6 14 4 4 5 357 349 343 335 332 330 332 334 334 330 323 313 305 302 306 308 306 306 310 312 312 312
327 344 283 254 299 304 79 62 61 71 103 103 94 186 166 120 61 44 34 17 15 16 16 9 8 13 2 343 333 347 4 329 337 341 345 345 343 339 337 334 334 332 329 329 329 329 330 330 329 325 318 315 315 313
288 298 270 218 205 229 200 173 131 95 57 57 65 50 17 25 41 56 327 3 13 13 10 5 1 355 343 338 342 346 346 340 335 333 333 334 337 336 330 329 333 335 337 337 340 343 347 347 342 334 329 326 321 312